{"data":{"norad_id":66849,"intl_designator":"2025-281B","name":"STARLINK-36102","alt_names":[],"object_type":"PAYLOAD","status":"ACTIVE","operator":null,"country":"US","launch_date":"2025-12-02","launch_site_code":"AFETR","launch_vehicle":null,"mission":null,"orbit_class":"UNKNOWN","rcs_meters":null,"size_class":null,"mass_kg":null,"dimensions":null,"purposes":["comms"],"wikipedia_slug":null,"has_3d_model":false,"image_url":null,"decayed_at":null,"tle_current":{"epoch":"2026-09-20T14:37:36.157728Z","epoch_age_seconds":74615,"freshness":"FRESH","line1":"1 66849U 25281B   26263.60944627  .00007687  00000+0  28854-3 0  9995","line2":"2 66849  43.0021 322.8751 0000977 258.4466 101.6276 15.27581943 45996","mean_motion":15.27581943,"eccentricity":9.77e-5,"inclination_deg":43.0021,"raan_deg":322.8751,"arg_perigee_deg":258.4466,"mean_anomaly_deg":101.6276,"bstar":0.00028854,"rev_number":4599,"period_min":94.266628811545,"perigee_km":482.37294069167,"apogee_km":483.71361531799,"semimajor_km":6861.1802780048,"source":"CELESTRAK","updated_at":"2026-09-21T09:00:36.025593Z"}}}